This demonstration page uses our WeatherBlox Daily Observations layout. Learn more.

Left ArrowRight Arrow

39.51506, -84.39828

Hourly Observations for April 10, 2020

Temp ( °F °C ) Dew Point ( °F °C ) Humidity (%) Winds ( mph kmh ) Pressure ( in mb ) Visibility ( mi km ) Precip ( " mm )
12:15 am 00:15 Cloudy 39 3.9 32 0.1 77 77 W 9 15 29.85 1011 10 16.0934 0 0
12:35 am 00:35 Cloudy with Light Rain 39 3.9 33 0.5 79 79 W 8 13 29.87 1012 10 16.0934 0 0
12:55 am 00:55 Cloudy 38 3.3 33 0.3 81 81 W 8 13 29.88 1012 10 16.0934 0 0
1:15 am 01:15 Clear 37 2.8 32 -0.2 81 81 W 8 13 29.88 1012 10 16.0934 0 0
1:35 am 01:35 Clear 37 2.6 31 -0.7 79 79 WNW 7 11 29.89 1012 10 16.0934 0 0
1:55 am 01:55 Clear 37 2.9 30 -1.3 74 74 WNW 8 13 29.9 1012 10 16.0934 0 0
2:15 am 02:15 Cloudy with Drizzle 36 2.2 31 -0.4 83 83 NNW 17 28 29.91 1013 10 16.0934 0 0
2:35 am 02:35 Mostly Cloudy 35 1.4 31 -0.3 89 89 NW 5 7 29.91 1013 10 16.0934 0 0
2:55 am 02:55 Clear 35 1.5 30 -1 84 84 WNW 10 17 29.91 1013 10 16.0934 0 0
3:15 am 03:15 Clear 35 1.8 30 -1.2 81 81 WNW 9 15 29.92 1013 10 16.0934 0 0
3:35 am 03:35 Clear 35 1.8 29 -1.4 80 80 WNW 8 13 29.93 1014 10 16.0934 0 0
3:55 am 03:55 Clear 35 1.7 29 -1.4 80 80 W 13 20 29.93 1014 10 16.0934 0 0
4:15 am 04:15 Clear 35 1.8 29 -1.6 78 78 W 10 17 29.93 1014 10 16.0934 0 0
4:35 am 04:35 Clear 35 1.7 29 -1.8 78 78 W 13 20 29.94 1014 10 16.0934 0 0
4:55 am 04:55 Clear 35 1.6 28 -2 77 77 W 9 15 29.94 1014 10 16.0934 0 0
5:15 am 05:15 Clear 35 1.4 28 -2 78 78 W 9 15 29.95 1014 10 16.0934 0 0
5:35 am 05:35 Clear 35 1.4 28 -2 78 78 W 12 19 29.96 1015 10 16.0934 0 0
5:55 am 05:55 Clear 35 1.4 28 -2.4 76 76 WNW 8 13 29.97 1015 10 16.0934 0 0
6:15 am 06:15 Clear 34 1.1 28 -2.4 78 78 W 9 15 29.97 1015 10 16.0934 0 0
6:35 am 06:35 Clear 34 1 28 -2.4 78 78 W 10 17 29.98 1015 10 16.0934 0 0
6:55 am 06:55 Clear 33 0.8 28 -2.4 79 79 W 10 17 29.99 1016 10 16.0934 0 0
7:15 am 07:15 Sunny 33 0.8 28 -2.4 79 79 W 9 15 30 1016 10 16.0934 0 0
7:35 am 07:35 Sunny 34 1 28 -2.4 78 78 W 10 17 30.01 1016 10 16.0934 0 0
7:55 am 07:55 Sunny 34 1.2 28 -2.3 78 78 WNW 10 17 30.02 1017 10 16.0934 0 0
8:15 am 08:15 Sunny 35 1.7 28 -2.4 75 75 W 12 19 30.03 1017 10 16.0934 0 0
8:35 am 08:35 Sunny 36 2.2 28 -2.1 74 74 WNW 13 20 30.03 1017 10 16.0934 0 0
8:55 am 08:55 Sunny 37 2.8 29 -1.8 72 72 WNW 13 20 30.04 1017 10 16.0934 0 0
9:15 am 09:15 Sunny 38 3.3 28 -2.1 68 68 WNW 13 20 30.04 1017 10 16.0934 0 0
9:35 am 09:35 Partly Cloudy 39 3.8 28 -2 66 66 WNW 13 20 30.04 1017 10 16.0934 0 0
9:55 am 09:55 Partly Cloudy 40 4.2 28 -2.3 63 63 NW 17 28 30.05 1018 10 16.0934 0 0
10:15 am 10:15 Mostly Cloudy 41 4.8 29 -1.8 63 63 NNW 13 20 30.05 1018 10 16.0934 0 0
10:35 am 10:35 Partly Cloudy 42 5.3 28 -2.1 59 59 WNW 14 22 30.07 1018 10 16.0934 0 0
10:55 am 10:55 Mostly Cloudy 42 5.6 28 -2.5 56 56 WNW 15 24 30.07 1018 10 16.0934 0 0
11:15 am 11:15 Mostly Cloudy 42 5.8 27 -2.7 55 55 NW 13 20 30.08 1019 10 16.0934 0 0
11:35 am 11:35 Partly Cloudy 44 6.5 26 -3.4 50 50 NW 16 26 30.08 1019 10 16.0934 0 0
11:55 am 11:55 Mostly Cloudy 42 5.6 25 -3.8 51 51 WNW 13 20 30.08 1019 10 16.0934 0 0
12:15 pm 12:15 Mostly Cloudy 44 6.8 26 -3.2 49 49 WNW 10 17 30.08 1019 10 16.0934 0 0
12:35 pm 12:35 Cloudy 44 6.9 26 -3.1 49 49 W 13 20 30.08 1019 10 16.0934 0 0
12:55 pm 12:55 Cloudy 43 6.2 26 -3.6 50 50 W 10 17 30.07 1018 10 16.0934 0 0
1:15 pm 13:15 Cloudy 44 6.4 25 -3.7 49 49 W 13 20 30.07 1018 10 16.0934 0 0
1:35 pm 13:35 Cloudy 44 6.5 26 -3.3 50 50 W 13 20 30.07 1018 10 16.0934 0 0
1:55 pm 13:55 Cloudy 45 7 25 -3.7 47 47 W 12 19 30.06 1018 10 16.0934 0 0
2:15 pm 14:15 Cloudy 45 7 25 -3.9 46 46 W 13 20 30.07 1018 10 16.0934 0 0
2:35 pm 14:35 Cloudy 45 7.1 25 -3.9 46 46 WNW 13 20 30.06 1018 10 16.0934 0 0
2:55 pm 14:55 Cloudy 45 7.3 26 -3.6 46 46 WNW 15 24 30.06 1018 10 16.0934 0 0
3:15 pm 15:15 Cloudy 45 7.4 26 -3.6 46 46 W 18 30 30.06 1018 10 16.0934 0 0
3:35 pm 15:35 Cloudy 46 7.6 26 -3.6 45 45 W 13 20 30.06 1018 10 16.0934 0 0
3:55 pm 15:55 Cloudy 46 7.8 26 -3.6 45 45 W 10 17 30.04 1017 10 16.0934 0 0
4:15 pm 16:15 Mostly Cloudy 46 8 26 -3.6 44 44 W 13 20 30.04 1017 10 16.0934 0 0
4:35 pm 16:35 Cloudy 46 8 25 -3.8 43 43 W 12 19 30.04 1017 10 16.0934 0 0
4:55 pm 16:55 Cloudy 47 8.2 25 -3.7 43 43 W 12 19 30.03 1017 10 16.0934 0 0
5:15 pm 17:15 Cloudy 47 8.3 26 -3.2 44 44 W 13 20 30.03 1017 10 16.0934 0 0
5:35 pm 17:35 Cloudy 47 8.2 26 -3.1 45 45 W 9 15 30.03 1017 10 16.0934 0 0
5:55 pm 17:55 Cloudy 47 8.2 26 -3.6 43 43 W 12 19 30.03 1017 10 16.0934 0 0
6:15 pm 18:15 Cloudy 48 9 25 -3.7 41 41 WNW 14 22 30.02 1017 10 16.0934 0 0
6:35 pm 18:35 Mostly Cloudy 47 8.3 25 -3.8 43 43 W 14 22 30.03 1017 10 16.0934 0 0
6:55 pm 18:55 Cloudy 48 8.7 26 -3.5 42 42 WSW 15 24 30.02 1017 10 16.0934 0 0
7:15 pm 19:15 Mostly Cloudy 47 8.5 25 -3.9 42 42 W 14 22 30.02 1017 10 16.0934 0 0
7:35 pm 19:35 Mostly Cloudy 47 8.2 26 -3.5 44 44 W 9 15 30.02 1017 10 16.0934 0 0
7:55 pm 19:55 Sunny 45 7.3 26 -3.4 47 47 W 8 13 30.03 1017 10 16.0934 0 0
8:15 pm 20:15 Clear 44 6.8 26 -3.6 48 48 W 6 9 30.03 1017 10 16.0934 0 0
8:35 pm 20:35 Clear 43 6.3 26 -3.3 51 51 W 5 7 30.02 1017 10 16.0934 0 0
8:55 pm 20:55 Clear 42 5.5 28 -2.5 57 57 WSW 3 6 30.03 1017 10 16.0934 0 0
9:15 pm 21:15 Clear 40 4.2 31 -0.8 70 70 W 3 6 30.04 1017 10 16.0934 0 0
9:35 pm 21:35 Clear 38 3.4 31 -0.3 77 77 Calm 30.05 1017 10 16.0934 0 0
9:55 pm 21:55 Clear 37 2.8 32 -0.2 81 81 Calm 30.05 1018 10 16.0934 0 0
10:15 pm 22:15 Clear 36 2.4 31 -0.8 80 80 Calm 30.06 1018 10 16.0934 0 0
10:35 pm 22:35 Clear 37 2.6 31 -0.4 81 81 Calm 30.05 1018 10 16.0934 0 0
10:55 pm 22:55 Clear 37 2.7 31 -0.3 81 81 Calm 30.05 1018 10 16.0934 0 0
11:15 pm 23:15 Clear 37 2.5 33 0.6 87 87 Calm 30.05 1018 10 16.0934 0 0
11:35 pm 23:35 Clear 36 2.3 33 0.5 88 88 Calm 30.04 1017 10 16.0934 0 0
11:55 pm 23:55 Clear 37 3 33 0.4 83 83 Calm 30.04 1017 10 16.0934 0 0

Powered by AerisWeather